| time (UTC) | temp F | wind direction | speed MPH | gust MPH | rain 1hr in | rain 24hr in | rain mn in | humidity % | barometer mb |
| 20260902191026 | 96 | 28 | 0.0 | 0.0 | 0.00 | 0.00 | 0.00 | 56 | 1017.2 |
| 20260902181038 | 95 | 117 | 0.0 | 4.0 | 0.00 | 0.00 | 0.00 | 56 | 1017.8 |
| 20260902171028 | 95 | 355 | 2.0 | 2.0 | 0.00 | 0.00 | 0.00 | 59 | 1018.0 |
| 20260902161020 | 94 | 54 | 0.0 | 2.0 | 0.00 | 0.00 | 0.00 | 58 | 1018.2 |
| 20260902151019 | 91 | 346 | 0.0 | 5.0 | 0.00 | 0.00 | 0.00 | 62 | 1018.6 |
| 20260902141025 | 89 | 62 | 3.0 | 3.0 | 0.00 | 0.00 | 0.00 | 67 | 1018.3 |
| 20260902131031 | 84 | 350 | 1.0 | 1.0 | 0.00 | 0.00 | 0.00 | 75 | 1018.2 |
| 20260902121028 | 78 | 349 | 0.0 | 1.0 | 0.00 | 0.00 | 0.00 | 85 | 1017.8 |
| 20260902111046 | 76 | 350 | 0.0 | 0.0 | 0.00 | 0.00 | 0.00 | 88 | 1017.8 |
| 20260902101021 | 77 | 350 | 0.0 | 0.0 | 0.00 | 0.00 | 0.00 | 86 | 1017.5 |
| 20260902091032 | 77 | 360 | 0.0 | 0.0 | 0.00 | 0.00 | 0.00 | 86 | 1017.1 |
| 20260902081018 | 77 | 296 | 0.0 | 0.0 | 0.00 | 0.00 | 0.00 | 89 | 1016.9 |
| 20260902071020 | 76 | 292 | 0.0 | 0.0 | 0.00 | 0.00 | 0.00 | 89 | 1017.1 |
| 20260902061024 | 76 | 180 | 0.0 | 0.0 | 0.00 | 0.00 | 0.00 | 88 | 1016.9 |
| 20260902051042 | 78 | 180 | 0.0 | 0.0 | 0.00 | 0.00 | 0.00 | 83 | 1017.0 |
| 20260902041012 | 79 | 180 | 0.0 | 0.0 | 0.00 | 0.00 | 0.00 | 81 | 1016.6 |
| 20260902031022 | 80 | 180 | 0.0 | 0.0 | 0.00 | 0.00 | 0.00 | 80 | 1016.1 |
| 20260902021018 | 81 | 180 | 0.0 | 0.0 | 0.00 | 0.00 | 0.00 | 78 | 1016.2 |
| 20260902011030 | 82 | 180 | 0.0 | 0.0 | 0.00 | 0.00 | 0.00 | 75 | 1015.4 |
| 20260902001046 | 84 | 180 | 0.0 | 0.0 | 0.00 | 0.00 | 0.00 | 70 | 1015.0 |
| 20260901231023 | 87 | 180 | 0.0 | 0.0 | 0.00 | 0.00 | 0.00 | 65 | 1015.1 |
| 20260901221032 | 90 | 194 | 3.0 | 3.0 | 0.00 | 0.00 | 0.00 | 59 | 1015.5 |
| 20260901211013 | 92 | 326 | 1.0 | 1.0 | 0.00 | 0.00 | 0.00 | 58 | 1015.5 |
| 20260901201028 | 93 | 360 | 2.0 | 3.0 | 0.00 | 0.00 | 0.00 | 56 | 1016.0 |